| time (UTC) | temp C | wind direction | speed KPH | gust KPH | rain 1hr cm | rain 24hr cm | rain mn cm | humidity % | barometer mb |
| 20260831214426 | 27 | 235 | 22.5 | 29.0 | 0.00 | 0.00 | 0.00 | 35 | 1011.9 |
| 20260831213921 | 27 | 242 | 19.3 | 24.1 | 0.00 | 0.00 | 0.00 | 36 | 1011.9 |
| 20260831213418 | 27 | 219 | 16.1 | 17.7 | 0.00 | 0.00 | 0.00 | 36 | 1011.9 |
| 20260831212917 | 27 | 249 | 22.5 | 25.7 | 0.00 | 0.00 | 0.00 | 35 | 1012.1 |
| 20260831212414 | 27 | 210 | 22.5 | 27.4 | 0.00 | 0.00 | 0.00 | 35 | 1012.1 |
| 20260831211913 | 27 | 240 | 17.7 | 24.1 | 0.00 | 0.00 | 0.00 | 35 | 1011.9 |
| 20260831211408 | 27 | 242 | 20.9 | 25.7 | 0.00 | 0.00 | 0.00 | 35 | 1012.0 |
| 20260831210902 | 26 | 225 | 17.7 | 22.5 | 0.00 | 0.00 | 0.00 | 35 | 1012.3 |
| 20260831210358 | 26 | 282 | 22.5 | 29.0 | 0.00 | 0.00 | 0.00 | 35 | 1012.1 |
| 20260831205853 | 27 | 234 | 16.1 | 22.5 | 0.00 | 0.00 | 0.00 | 35 | 1012.1 |
| 20260831205349 | 26 | 228 | 20.9 | 27.4 | 0.00 | 0.00 | 0.00 | 36 | 1012.3 |
| 20260831204844 | 26 | 284 | 19.3 | 25.7 | 0.00 | 0.00 | 0.00 | 36 | 1012.4 |
| 20260831204343 | 26 | 260 | 24.1 | 32.2 | 0.00 | 0.00 | 0.00 | 36 | 1012.1 |
| 20260831203842 | 27 | 237 | 17.7 | 24.1 | 0.00 | 0.00 | 0.00 | 36 | 1012.3 |
| 20260831203337 | 26 | 259 | 20.9 | 22.5 | 0.00 | 0.00 | 0.00 | 35 | 1012.2 |
| 20260831202835 | 26 | 248 | 25.7 | 29.0 | 0.00 | 0.00 | 0.00 | 35 | 1012.3 |
| 20260831202330 | 26 | 261 | 12.9 | 16.1 | 0.00 | 0.00 | 0.00 | 37 | 1012.7 |
| 20260831201824 | 26 | 252 | 29.0 | 35.4 | 0.00 | 0.00 | 0.00 | 35 | 1012.6 |
| 20260831201323 | 26 | 222 | 16.1 | 20.9 | 0.00 | 0.00 | 0.00 | 37 | 1012.5 |
| 20260831200819 | 26 | 256 | 17.7 | 20.9 | 0.00 | 0.00 | 0.00 | 37 | 1012.3 |
| 20260831200314 | 26 | 215 | 12.9 | 14.5 | 0.00 | 0.00 | 0.00 | 38 | 1012.4 |
| 20260831195809 | 26 | 218 | 16.1 | 22.5 | 0.00 | 0.00 | 0.00 | 38 | 1012.3 |
| 20260831195306 | 26 | 257 | 16.1 | 20.9 | 0.00 | 0.00 | 0.00 | 38 | 1012.5 |
| 20260831194754 | 25 | 270 | 19.3 | 22.5 | 0.00 | 0.00 | 0.00 | 38 | 1012.4 |
| 20260831194249 | 25 | 256 | 22.5 | 27.4 | 0.00 | 0.00 | 0.00 | 38 | 1012.4 |
| 20260831193743 | 25 | 219 | 27.4 | 43.5 | 0.00 | 0.00 | 0.00 | 39 | 1012.4 |
| 20260831193239 | 26 | 258 | 16.1 | 17.7 | 0.00 | 0.00 | 0.00 | 38 | 1012.5 |
| 20260831192733 | 26 | 218 | 22.5 | 27.4 | 0.00 | 0.00 | 0.00 | 39 | 1012.6 |
| 20260831192229 | 25 | 239 | 19.3 | 24.1 | 0.00 | 0.00 | 0.00 | 39 | 1012.7 |
| 20260831191725 | 25 | 231 | 19.3 | 24.1 | 0.00 | 0.00 | 0.00 | 40 | 1012.6 |
| 20260831191221 | 25 | 237 | 22.5 | 27.4 | 0.00 | 0.00 | 0.00 | 38 | 1012.9 |
| 20260831190716 | 25 | 231 | 24.1 | 32.2 | 0.00 | 0.00 | 0.00 | 40 | 1012.7 |
| 20260831190215 | 25 | 246 | 24.1 | 32.2 | 0.00 | 0.00 | 0.00 | 40 | 1012.6 |
| 20260831185710 | 25 | 239 | 25.7 | 32.2 | 0.00 | 0.00 | 0.00 | 40 | 1012.9 |
| 20260831185206 | 25 | 239 | 24.1 | 32.2 | 0.00 | 0.00 | 0.00 | 40 | 1013.2 |
| 20260831184705 | 25 | 224 | 24.1 | 27.4 | 0.00 | 0.00 | 0.00 | 40 | 1013.0 |
| 20260831184201 | 25 | 252 | 19.3 | 24.1 | 0.00 | 0.00 | 0.00 | 42 | 1013.2 |
| 20260831183700 | 25 | 214 | 22.5 | 24.1 | 0.00 | 0.00 | 0.00 | 43 | 1013.2 |
| 20260831183200 | 25 | 242 | 22.5 | 32.2 | 0.00 | 0.00 | 0.00 | 42 | 1013.2 |
| 20260831182659 | 24 | 206 | 19.3 | 22.5 | 0.00 | 0.00 | 0.00 | 44 | 1013.1 |
| 20260831182155 | 23 | 223 | 16.1 | 17.7 | 0.00 | 0.00 | 0.00 | 44 | 1013.3 |
| 20260831181650 | 24 | 228 | 19.3 | 24.1 | 0.00 | 0.00 | 0.00 | 44 | 1013.2 |
| 20260831181149 | 24 | 232 | 22.5 | 29.0 | 0.00 | 0.00 | 0.00 | 44 | 1013.4 |
| 20260831180644 | 23 | 247 | 16.1 | 20.9 | 0.00 | 0.00 | 0.00 | 47 | 1013.3 |
| 20260831180139 | 23 | 222 | 17.7 | 25.7 | 0.00 | 0.00 | 0.00 | 45 | 1013.4 |
| 20260831175634 | 23 | 212 | 19.3 | 25.7 | 0.00 | 0.00 | 0.00 | 46 | 1013.6 |
| 20260831175131 | 23 | 246 | 20.9 | 25.7 | 0.00 | 0.00 | 0.00 | 45 | 1013.6 |
| 20260831174625 | 23 | 231 | 24.1 | 32.2 | 0.00 | 0.00 | 0.00 | 45 | 1013.4 |
| 20260831174120 | 23 | 218 | 17.7 | 20.9 | 0.00 | 0.00 | 0.00 | 47 | 1013.6 |
| 20260831173618 | 23 | 233 | 17.7 | 22.5 | 0.00 | 0.00 | 0.00 | 47 | 1013.6 |
| 20260831173114 | 23 | 232 | 17.7 | 35.4 | 0.00 | 0.00 | 0.00 | 48 | 1013.5 |
| 20260831172609 | 23 | 207 | 24.1 | 27.4 | 0.00 | 0.00 | 0.00 | 47 | 1013.6 |
| 20260831172103 | 23 | 216 | 20.9 | 25.7 | 0.00 | 0.00 | 0.00 | 48 | 1013.5 |
| 20260831171558 | 23 | 249 | 14.5 | 22.5 | 0.00 | 0.00 | 0.00 | 48 | 1013.6 |
| 20260831171056 | 22 | 223 | 19.3 | 24.1 | 0.00 | 0.00 | 0.00 | 50 | 1013.6 |
| 20260831170551 | 22 | 244 | 14.5 | 17.7 | 0.00 | 0.00 | 0.00 | 50 | 1013.7 |
| 20260831170049 | 22 | 266 | 12.9 | 14.5 | 0.00 | 0.00 | 0.00 | 51 | 1013.7 |
| 20260831165549 | 22 | 205 | 19.3 | 25.7 | 0.00 | 0.00 | 0.00 | 51 | 1013.7 |
| 20260831165046 | 22 | 174 | 12.9 | 16.1 | 0.00 | 0.00 | 0.00 | 52 | 1013.8 |
| 20260831164542 | 22 | 249 | 17.7 | 24.1 | 0.00 | 0.00 | 0.00 | 51 | 1013.8 |
| 20260831164037 | 22 | 218 | 14.5 | 20.9 | 0.00 | 0.00 | 0.00 | 55 | 1013.8 |
| 20260831163531 | 22 | 262 | 14.5 | 17.7 | 0.00 | 0.00 | 0.00 | 55 | 1013.8 |
| 20260831163028 | 21 | 252 | 19.3 | 24.1 | 0.00 | 0.00 | 0.00 | 55 | 1013.6 |
| 20260831162526 | 21 | 235 | 19.3 | 20.9 | 0.00 | 0.00 | 0.00 | 59 | 1013.8 |
| 20260831162024 | 21 | 236 | 20.9 | 24.1 | 0.00 | 0.00 | 0.00 | 60 | 1013.8 |
| 20260831161521 | 21 | 246 | 11.3 | 12.9 | 0.00 | 0.00 | 0.00 | 62 | 1013.7 |
| 20260831161017 | 21 | 252 | 16.1 | 20.9 | 0.00 | 0.00 | 0.00 | 61 | 1013.7 |
| 20260831160516 | 21 | 278 | 17.7 | 20.9 | 0.00 | 0.00 | 0.00 | 62 | 1013.7 |
| 20260831160012 | 21 | 226 | 16.1 | 20.9 | 0.00 | 0.00 | 0.00 | 62 | 1013.9 |
| 20260831155506 | 20 | 217 | 9.7 | 12.9 | 0.00 | 0.00 | 0.00 | 63 | 1013.9 |
| 20260831155001 | 20 | 239 | 9.7 | 16.1 | 0.00 | 0.00 | 0.00 | 64 | 1014.0 |
| 20260831154458 | 20 | 235 | 20.9 | 29.0 | 0.00 | 0.00 | 0.00 | 62 | 1013.9 |
| 20260831153956 | 20 | 223 | 17.7 | 20.9 | 0.00 | 0.00 | 0.00 | 63 | 1014.0 |
| 20260831153452 | 20 | 195 | 8.0 | 9.7 | 0.00 | 0.00 | 0.00 | 68 | 1014.0 |
| 20260831152949 | 20 | 229 | 9.7 | 12.9 | 0.00 | 0.00 | 0.00 | 68 | 1013.9 |
| 20260831152444 | 19 | 228 | 14.5 | 16.1 | 0.00 | 0.00 | 0.00 | 67 | 1014.0 |
| 20260831151939 | 19 | 261 | 9.7 | 12.9 | 0.00 | 0.00 | 0.00 | 68 | 1014.0 |
| 20260831151438 | 19 | 214 | 14.5 | 20.9 | 0.00 | 0.00 | 0.00 | 67 | 1013.9 |
| 20260831150933 | 18 | 233 | 17.7 | 20.9 | 0.00 | 0.00 | 0.00 | 68 | 1013.8 |
| 20260831150428 | 18 | 261 | 11.3 | 12.9 | 0.00 | 0.00 | 0.00 | 70 | 1013.9 |
| 20260831145927 | 18 | 226 | 6.4 | 8.0 | 0.00 | 0.00 | 0.00 | 74 | 1014.0 |
| 20260831145424 | 18 | 196 | 12.9 | 14.5 | 0.00 | 0.00 | 0.00 | 72 | 1013.9 |
| 20260831144919 | 18 | 252 | 12.9 | 16.1 | 0.00 | 0.00 | 0.00 | 74 | 1013.9 |
| 20260831144410 | 17 | 188 | 9.7 | 11.3 | 0.00 | 0.00 | 0.00 | 75 | 1013.8 |
| 20260831143910 | 17 | 240 | 9.7 | 14.5 | 0.00 | 0.00 | 0.00 | 75 | 1013.7 |
| 20260831143404 | 17 | 246 | 11.3 | 12.9 | 0.00 | 0.00 | 0.00 | 75 | 1013.8 |
| 20260831142854 | 17 | 209 | 8.0 | 11.3 | 0.00 | 0.00 | 0.00 | 75 | 1013.6 |
| 20260831142349 | 16 | 201 | 16.1 | 20.9 | 0.00 | 0.00 | 0.00 | 77 | 1013.6 |
| 20260831141844 | 16 | 207 | 12.9 | 14.5 | 0.00 | 0.00 | 0.00 | 78 | 1013.7 |
| 20260831141339 | 16 | 210 | 6.4 | 8.0 | 0.00 | 0.00 | 0.00 | 80 | 1013.7 |
| 20260831140833 | 16 | 208 | 11.3 | 14.5 | 0.00 | 0.00 | 0.00 | 80 | 1013.6 |
| 20260831140328 | 15 | 178 | 9.7 | 12.9 | 0.00 | 0.00 | 0.00 | 80 | 1013.8 |
| 20260831135827 | 15 | 205 | 11.3 | 12.9 | 0.00 | 0.00 | 0.00 | 81 | 1013.6 |
| 20260831135322 | 15 | 214 | 11.3 | 14.5 | 0.00 | 0.00 | 0.00 | 81 | 1013.5 |
| 20260831134817 | 15 | 197 | 9.7 | 11.3 | 0.00 | 0.00 | 0.00 | 82 | 1013.5 |
| 20260831134314 | 15 | 213 | 9.7 | 11.3 | 0.00 | 0.00 | 0.00 | 82 | 1013.5 |
| 20260831133813 | 14 | 201 | 12.9 | 14.5 | 0.00 | 0.00 | 0.00 | 83 | 1013.5 |
| 20260831133312 | 14 | 215 | 11.3 | 14.5 | 0.00 | 0.00 | 0.00 | 84 | 1013.5 |
| 20260831132808 | 14 | 200 | 9.7 | 14.5 | 0.00 | 0.00 | 0.00 | 83 | 1013.5 |
| 20260831132306 | 13 | 184 | 11.3 | 12.9 | 0.00 | 0.00 | 0.00 | 84 | 1013.2 |
| 20260831131757 | 13 | 195 | 8.0 | 11.3 | 0.00 | 0.00 | 0.00 | 85 | 1013.6 |
| 20260831131253 | 13 | 198 | 6.4 | 8.0 | 0.00 | 0.00 | 0.00 | 85 | 1013.6 |
| 20260831130748 | 13 | 177 | 9.7 | 11.3 | 0.00 | 0.00 | 0.00 | 86 | 1013.2 |
| 20260831130244 | 13 | 194 | 8.0 | 9.7 | 0.00 | 0.00 | 0.00 | 86 | 1013.5 |
| 20260831125742 | 13 | 212 | 4.8 | 9.7 | 0.00 | 0.00 | 0.00 | 87 | 1013.3 |
| 20260831125238 | 12 | 191 | 4.8 | 8.0 | 0.00 | 0.00 | 0.00 | 88 | 1013.5 |
| 20260831124732 | 12 | 218 | 6.4 | 8.0 | 0.00 | 0.00 | 0.00 | 89 | 1013.4 |
| 20260831124229 | 12 | 196 | 3.2 | 3.2 | 0.00 | 0.00 | 0.00 | 90 | 1013.5 |
| 20260831123729 | 12 | 179 | 1.6 | 3.2 | 0.00 | 0.00 | 0.00 | 90 | 1013.4 |
| 20260831123227 | 11 | 200 | 1.6 | 1.6 | 0.00 | 0.00 | 0.00 | 91 | 1013.2 |
| 20260831122722 | 11 | 136 | 0.0 | 1.6 | 0.00 | 0.00 | 0.00 | 91 | 1013.4 |
| 20260831122218 | 11 | 166 | 1.6 | 1.6 | 0.00 | 0.00 | 0.00 | 91 | 1013.3 |
| 20260831121717 | 11 | 114 | 0.0 | 0.0 | 0.00 | 0.00 | 0.00 | 91 | 1013.3 |
| 20260831121214 | 11 | 190 | 3.2 | 3.2 | 0.00 | 0.00 | 0.00 | 91 | 1013.4 |
| 20260831120709 | 11 | 197 | 1.6 | 1.6 | 0.00 | 0.00 | 0.00 | 91 | 1013.2 |
| 20260831120203 | 11 | 273 | 3.2 | 3.2 | 0.00 | 0.00 | 0.00 | 92 | 1013.0 |
| 20260831115659 | 11 | 69 | 0.0 | 0.0 | 0.00 | 0.00 | 0.00 | 92 | 1013.1 |
| 20260831115155 | 11 | 74 | 0.0 | 1.6 | 0.00 | 0.00 | 0.00 | 92 | 1012.9 |
| 20260831114654 | 11 | 93 | 0.0 | 0.0 | 0.00 | 0.00 | 0.00 | 92 | 1013.0 |
| 20260831114148 | 11 | 162 | 0.0 | 0.0 | 0.00 | 0.00 | 0.00 | 92 | 1013.0 |
| 20260831113643 | 11 | 214 | 1.6 | 3.2 | 0.00 | 0.00 | 0.00 | 92 | 1012.7 |
| 20260831113138 | 11 | 205 | 3.2 | 4.8 | 0.00 | 0.00 | 0.00 | 92 | 1012.6 |
| 20260831112637 | 11 | 206 | 1.6 | 3.2 | 0.00 | 0.00 | 0.00 | 92 | 1012.6 |
| 20260831112132 | 11 | 215 | 3.2 | 3.2 | 0.00 | 0.00 | 0.00 | 92 | 1012.7 |
| 20260831111628 | 11 | 158 | 1.6 | 1.6 | 0.00 | 0.00 | 0.00 | 92 | 1012.6 |
| 20260831111123 | 11 | 202 | 4.8 | 4.8 | 0.00 | 0.00 | 0.00 | 92 | 1012.7 |
| 20260831110618 | 11 | 221 | 3.2 | 3.2 | 0.00 | 0.00 | 0.00 | 92 | 1012.6 |
| 20260831110109 | 11 | 180 | 3.2 | 3.2 | 0.00 | 0.00 | 0.00 | 92 | 1012.6 |
| 20260831105607 | 11 | 203 | 3.2 | 3.2 | 0.00 | 0.00 | 0.00 | 92 | 1012.5 |
| 20260831105102 | 11 | 191 | 3.2 | 3.2 | 0.00 | 0.00 | 0.00 | 92 | 1012.5 |
| 20260831104557 | 11 | 162 | 3.2 | 3.2 | 0.00 | 0.00 | 0.00 | 92 | 1012.3 |
| 20260831104048 | 11 | 181 | 3.2 | 3.2 | 0.00 | 0.00 | 0.00 | 92 | 1012.6 |
| 20260831103543 | 11 | 188 | 3.2 | 3.2 | 0.00 | 0.00 | 0.00 | 92 | 1012.3 |
| 20260831103039 | 11 | 188 | 4.8 | 8.0 | 0.00 | 0.00 | 0.00 | 92 | 1012.2 |
| 20260831102533 | 11 | 197 | 3.2 | 3.2 | 0.00 | 0.00 | 0.00 | 92 | 1012.0 |
| 20260831102028 | 11 | 211 | 3.2 | 3.2 | 0.00 | 0.00 | 0.00 | 92 | 1012.2 |
| 20260831101523 | 11 | 158 | 0.0 | 0.0 | 0.00 | 0.00 | 0.00 | 92 | 1011.9 |
| 20260831101020 | 11 | 196 | 1.6 | 3.2 | 0.00 | 0.00 | 0.00 | 92 | 1011.9 |
| 20260831100515 | 11 | 230 | 1.6 | 3.2 | 0.00 | 0.00 | 0.00 | 92 | 1011.9 |
| 20260831100011 | 11 | 183 | 4.8 | 4.8 | 0.00 | 0.00 | 0.00 | 92 | 1011.8 |
| 20260831095509 | 11 | 190 | 0.0 | 0.0 | 0.00 | 0.00 | 0.00 | 92 | 1011.7 |
| 20260831095004 | 11 | 168 | 0.0 | 0.0 | 0.00 | 0.00 | 0.00 | 92 | 1012.0 |
| 20260831094500 | 11 | 158 | 0.0 | 1.6 | 0.00 | 0.00 | 0.00 | 91 | 1012.0 |
| 20260831093956 | 11 | 211 | 3.2 | 3.2 | 0.00 | 0.00 | 0.00 | 91 | 1011.8 |
| 20260831093450 | 11 | 187 | 1.6 | 1.6 | 0.00 | 0.00 | 0.00 | 92 | 1011.6 |
| 20260831092947 | 11 | 171 | 1.6 | 1.6 | 0.00 | 0.00 | 0.00 | 92 | 1011.8 |
| 20260831092442 | 11 | 169 | 0.0 | 0.0 | 0.00 | 0.00 | 0.00 | 92 | 1011.7 |
| 20260831091937 | 11 | 171 | 0.0 | 0.0 | 0.00 | 0.00 | 0.00 | 92 | 1011.7 |
| 20260831091433 | 11 | 186 | 1.6 | 1.6 | 0.00 | 0.00 | 0.00 | 92 | 1011.5 |
| 20260831090927 | 11 | 165 | 0.0 | 0.0 | 0.00 | 0.00 | 0.00 | 92 | 1011.5 |
| 20260831090424 | 11 | 219 | 3.2 | 3.2 | 0.00 | 0.00 | 0.00 | 92 | 1011.6 |
| 20260831085920 | 11 | 204 | 0.0 | 0.0 | 0.00 | 0.00 | 0.00 | 92 | 1011.5 |
| 20260831085414 | 11 | 183 | 0.0 | 0.0 | 0.00 | 0.00 | 0.00 | 92 | 1011.7 |
| 20260831084914 | 11 | 138 | 0.0 | 0.0 | 0.00 | 0.00 | 0.00 | 92 | 1011.7 |
| 20260831084410 | 11 | 185 | 1.6 | 1.6 | 0.00 | 0.00 | 0.00 | 92 | 1011.6 |
| 20260831083906 | 11 | 220 | 1.6 | 1.6 | 0.00 | 0.00 | 0.00 | 92 | 1011.7 |
| 20260831083401 | 11 | 201 | 0.0 | 1.6 | 0.00 | 0.00 | 0.00 | 92 | 1011.5 |
| 20260831082900 | 11 | 186 | 1.6 | 3.2 | 0.00 | 0.00 | 0.00 | 92 | 1011.7 |
| 20260831082400 | 11 | 191 | 1.6 | 1.6 | 0.00 | 0.00 | 0.00 | 92 | 1011.7 |
| 20260831081856 | 11 | 160 | 0.0 | 0.0 | 0.00 | 0.00 | 0.00 | 92 | 1011.6 |
| 20260831081351 | 11 | 135 | 0.0 | 0.0 | 0.00 | 0.00 | 0.00 | 92 | 1011.7 |
| 20260831080847 | 11 | 189 | 0.0 | 0.0 | 0.00 | 0.00 | 0.00 | 92 | 1011.5 |
| 20260831080343 | 11 | 134 | 0.0 | 0.0 | 0.00 | 0.00 | 0.00 | 92 | 1011.5 |
| 20260831075838 | 11 | 131 | 0.0 | 0.0 | 0.00 | 0.00 | 0.00 | 92 | 1011.3 |
| 20260831075332 | 11 | 109 | 0.0 | 0.0 | 0.00 | 0.00 | 0.00 | 92 | 1011.5 |
| 20260831074828 | 11 | 86 | 0.0 | 0.0 | 0.00 | 0.00 | 0.00 | 92 | 1011.5 |
| 20260831074327 | 11 | 85 | 0.0 | 0.0 | 0.00 | 0.00 | 0.00 | 92 | 1011.3 |
| 20260831073822 | 11 | 91 | 0.0 | 0.0 | 0.00 | 0.00 | 0.00 | 93 | 1011.1 |
| 20260831073316 | 11 | 64 | 0.0 | 0.0 | 0.00 | 0.00 | 0.00 | 92 | 1011.2 |
| 20260831072811 | 11 | 35 | 0.0 | 0.0 | 0.00 | 0.00 | 0.00 | 92 | 1011.4 |
| 20260831072307 | 11 | 35 | 0.0 | 0.0 | 0.00 | 0.00 | 0.00 | 92 | 1011.3 |
| 20260831071803 | 11 | 35 | 0.0 | 0.0 | 0.00 | 0.00 | 0.00 | 92 | 1011.3 |
| 20260831071256 | 11 | 339 | 0.0 | 0.0 | 0.00 | 0.00 | 0.00 | 92 | 1011.4 |
| 20260831070751 | 11 | 339 | 0.0 | 0.0 | 0.00 | 0.00 | 0.00 | 92 | 1011.4 |
| 20260831070250 | 12 | 339 | 0.0 | 0.0 | 0.00 | 0.00 | 0.00 | 92 | 1011.3 |
| 20260831065749 | 12 | 339 | 0.0 | 0.0 | 0.00 | 0.00 | 0.00 | 92 | 1011.3 |
| 20260831065247 | 12 | 339 | 0.0 | 0.0 | 0.00 | 0.00 | 0.00 | 92 | 1011.5 |
| 20260831064743 | 12 | 339 | 0.0 | 0.0 | 0.00 | 0.00 | 0.00 | 92 | 1011.5 |
| 20260831064237 | 12 | 337 | 0.0 | 0.0 | 0.00 | 0.00 | 0.00 | 92 | 1011.6 |
| 20260831063734 | 12 | 189 | 0.0 | 0.0 | 0.00 | 0.00 | 0.00 | 92 | 1011.3 |
| 20260831063228 | 12 | 335 | 0.0 | 0.0 | 0.00 | 0.00 | 0.00 | 91 | 1011.4 |
| 20260831062728 | 12 | 330 | 0.0 | 1.6 | 0.00 | 0.00 | 0.00 | 91 | 1011.8 |
| 20260831062223 | 12 | 192 | 3.2 | 3.2 | 0.00 | 0.00 | 0.00 | 91 | 1011.7 |
| 20260831061721 | 12 | 176 | 1.6 | 3.2 | 0.00 | 0.00 | 0.00 | 91 | 1011.9 |
| 20260831061217 | 12 | 238 | 1.6 | 3.2 | 0.00 | 0.00 | 0.00 | 91 | 1011.7 |
| 20260831060713 | 12 | 234 | 3.2 | 3.2 | 0.00 | 0.00 | 0.00 | 91 | 1011.6 |
| 20260831060212 | 13 | 206 | 0.0 | 0.0 | 0.00 | 0.00 | 0.00 | 91 | 1011.7 |
| 20260831055707 | 13 | 196 | 0.0 | 0.0 | 0.00 | 0.00 | 0.00 | 90 | 1011.2 |
| 20260831055201 | 13 | 211 | 4.8 | 4.8 | 0.00 | 0.00 | 0.00 | 90 | 1011.4 |
| 20260831054656 | 13 | 244 | 3.2 | 3.2 | 0.00 | 0.00 | 0.00 | 90 | 1011.2 |
| 20260831054156 | 13 | 214 | 6.4 | 8.0 | 0.00 | 0.00 | 0.00 | 90 | 1011.3 |
| 20260831053650 | 13 | 239 | 4.8 | 4.8 | 0.00 | 0.00 | 0.00 | 90 | 1011.3 |
| 20260831053149 | 13 | 276 | 4.8 | 4.8 | 0.00 | 0.00 | 0.00 | 90 | 1011.2 |
| 20260831052648 | 13 | 223 | 4.8 | 4.8 | 0.00 | 0.00 | 0.00 | 90 | 1011.1 |
| 20260831052147 | 13 | 258 | 3.2 | 3.2 | 0.00 | 0.00 | 0.00 | 90 | 1011.1 |
| 20260831051645 | 13 | 241 | 6.4 | 9.7 | 0.00 | 0.00 | 0.00 | 90 | 1010.9 |
| 20260831051144 | 13 | 259 | 4.8 | 4.8 | 0.00 | 0.00 | 0.00 | 91 | 1010.9 |
| 20260831050639 | 13 | 199 | 4.8 | 4.8 | 0.00 | 0.00 | 0.00 | 91 | 1010.7 |
| 20260831050133 | 13 | 251 | 4.8 | 4.8 | 0.00 | 0.00 | 0.00 | 91 | 1010.7 |
| 20260831045633 | 13 | 288 | 3.2 | 3.2 | 0.00 | 2.72 | 2.72 | 91 | 1010.6 |
| 20260831045128 | 13 | 295 | 3.2 | 3.2 | 0.00 | 2.72 | 2.72 | 91 | 1010.6 |
| 20260831044623 | 13 | 285 | 4.8 | 4.8 | 0.00 | 2.72 | 2.72 | 91 | 1010.6 |
| 20260831044118 | 13 | 189 | 1.6 | 3.2 | 0.00 | 2.72 | 2.72 | 91 | 1010.6 |
| 20260831043613 | 13 | 213 | 1.6 | 1.6 | 0.00 | 2.72 | 2.72 | 91 | 1010.4 |
| 20260831043103 | 14 | 145 | 0.0 | 1.6 | 0.00 | 2.72 | 2.72 | 91 | 1010.6 |
| 20260831042602 | 14 | 256 | 1.6 | 1.6 | 0.00 | 2.72 | 2.72 | 91 | 1010.5 |
| 20260831042057 | 14 | 176 | 1.6 | 1.6 | 0.00 | 2.72 | 2.72 | 91 | 1010.3 |
| 20260831041552 | 14 | 191 | 1.6 | 1.6 | 0.00 | 2.72 | 2.72 | 90 | 1010.4 |
| 20260831041051 | 15 | 257 | 3.2 | 3.2 | 0.00 | 2.72 | 2.72 | 90 | 1010.4 |
| 20260831040546 | 15 | 235 | 3.2 | 3.2 | 0.00 | 2.72 | 2.72 | 90 | 1010.4 |
| 20260831040045 | 15 | 317 | 0.0 | 0.0 | 0.00 | 2.72 | 2.72 | 89 | 1010.2 |
| 20260831035543 | 15 | 316 | 1.6 | 1.6 | 0.00 | 2.72 | 2.72 | 89 | 1010.3 |
| 20260831035039 | 15 | 267 | 1.6 | 3.2 | 0.00 | 2.72 | 2.72 | 89 | 1010.4 |
| 20260831034533 | 15 | 294 | 1.6 | 1.6 | 0.00 | 2.72 | 2.72 | 88 | 1010.4 |
| 20260831034028 | 15 | 295 | 3.2 | 3.2 | 0.00 | 2.72 | 2.72 | 88 | 1010.3 |
| 20260831033524 | 15 | 290 | 1.6 | 3.2 | 0.00 | 2.72 | 2.72 | 88 | 1010.6 |
| 20260831033019 | 16 | 194 | 1.6 | 3.2 | 0.00 | 2.72 | 2.72 | 87 | 1010.8 |
| 20260831032518 | 16 | 240 | 4.8 | 4.8 | 0.00 | 2.72 | 2.72 | 87 | 1010.7 |
| 20260831032014 | 16 | 228 | 6.4 | 8.0 | 0.00 | 2.72 | 2.72 | 87 | 1010.9 |
| 20260831031514 | 16 | 219 | 4.8 | 4.8 | 0.00 | 2.72 | 2.72 | 87 | 1010.6 |
| 20260831031013 | 16 | 227 | 4.8 | 4.8 | 0.00 | 2.72 | 2.72 | 85 | 1010.4 |
| 20260831030512 | 16 | 286 | 6.4 | 8.0 | 0.00 | 2.72 | 2.72 | 83 | 1009.9 |
| 20260831030011 | 16 | 297 | 8.0 | 9.7 | 0.00 | 2.72 | 2.72 | 83 | 1009.9 |
| 20260831025504 | 16 | 340 | 3.2 | 3.2 | 0.00 | 2.72 | 2.72 | 86 | 1010.0 |
| 20260831024959 | 16 | 166 | 0.0 | 0.0 | 0.00 | 2.72 | 2.72 | 86 | 1009.7 |
| 20260831024454 | 16 | 283 | 1.6 | 1.6 | 0.00 | 2.72 | 2.72 | 85 | 1009.8 |
| 20260831023948 | 16 | 53 | 0.0 | 1.6 | 0.00 | 2.72 | 2.72 | 85 | 1010.0 |
| 20260831023446 | 16 | 42 | 1.6 | 1.6 | 0.00 | 2.72 | 2.72 | 84 | 1009.6 |
| 20260831022942 | 16 | 39 | 1.6 | 3.2 | 0.00 | 2.72 | 2.72 | 82 | 1009.6 |
| 20260831022440 | 16 | 25 | 4.8 | 4.8 | 0.00 | 2.72 | 2.72 | 83 | 1009.8 |
| 20260831021935 | 16 | 38 | 3.2 | 4.8 | 0.00 | 2.72 | 2.72 | 82 | 1009.7 |
| 20260831021435 | 16 | 320 | 6.4 | 8.0 | 0.00 | 2.72 | 2.72 | 81 | 1009.7 |
| 20260831020931 | 16 | 311 | 6.4 | 8.0 | 0.00 | 2.72 | 2.72 | 83 | 1009.9 |
| 20260831020430 | 16 | 359 | 8.0 | 11.3 | 0.00 | 2.72 | 2.72 | 83 | 1009.3 |
| 20260831015925 | 16 | 322 | 8.0 | 11.3 | 0.00 | 2.72 | 2.72 | 84 | 1009.5 |
| 20260831015421 | 16 | 279 | 14.5 | 17.7 | 0.00 | 2.72 | 2.72 | 85 | 1010.0 |
| 20260831014917 | 16 | 261 | 14.5 | 22.5 | 0.00 | 2.72 | 2.72 | 85 | 1010.0 |
| 20260831014416 | 16 | 317 | 17.7 | 24.1 | 0.00 | 2.72 | 2.72 | 85 | 1010.2 |
| 20260831013912 | 16 | 0 | 17.7 | 25.7 | 0.00 | 2.72 | 2.72 | 88 | 1010.2 |
| 20260831013408 | 16 | 308 | 14.5 | 17.7 | 0.00 | 2.72 | 2.72 | 89 | 1010.3 |
| 20260831012902 | 16 | 317 | 17.7 | 25.7 | 0.00 | 2.72 | 2.72 | 90 | 1010.3 |
| 20260831012357 | 16 | 273 | 17.7 | 24.1 | 0.13 | 2.72 | 2.72 | 90 | 1010.2 |
| 20260831011852 | 16 | 299 | 24.1 | 27.4 | 0.13 | 2.72 | 2.72 | 91 | 1010.1 |
| 20260831011346 | 16 | 308 | 14.5 | 17.7 | 0.00 | 2.69 | 2.69 | 92 | 1009.9 |
| 20260831010837 | 16 | 295 | 17.7 | 20.9 | 0.36 | 2.69 | 2.69 | 93 | 1010.3 |
| 20260831010336 | 16 | 300 | 16.1 | 22.5 | 0.48 | 2.69 | 2.69 | 93 | 1010.6 |
| 20260831005832 | 16 | 297 | 19.3 | 25.7 | 0.61 | 2.64 | 2.64 | 94 | 1010.2 |
| 20260831005328 | 17 | 286 | 24.1 | 27.4 | 1.19 | 2.62 | 2.62 | 94 | 1010.2 |
| 20260831004827 | 17 | 274 | 14.5 | 17.7 | 4.67 | 2.54 | 2.54 | 93 | 1010.5 |
| 20260831004324 | 17 | 288 | 17.7 | 22.5 | 7.62 | 2.44 | 2.44 | 93 | 1010.4 |
| 20260831003819 | 18 | 285 | 32.2 | 40.2 | 4.55 | 1.88 | 1.88 | 92 | 1010.1 |
| 20260831003316 | 20 | 256 | 20.9 | 37.0 | 0.00 | 1.12 | 1.12 | 84 | 1010.0 |
| 20260831002815 | 21 | 265 | 16.1 | 20.9 | 0.00 | 1.12 | 1.12 | 81 | 1009.5 |
| 20260831002308 | 23 | 247 | 12.9 | 16.1 | 0.00 | 1.12 | 1.12 | 83 | 1008.9 |
| 20260831001804 | 23 | 170 | 9.7 | 11.3 | 0.00 | 1.12 | 1.12 | 84 | 1007.2 |
| 20260831001259 | 23 | 142 | 6.4 | 8.0 | 0.00 | 1.12 | 1.12 | 84 | 1006.8 |
| 20260831000757 | 24 | 122 | 4.8 | 8.0 | 0.00 | 1.12 | 1.12 | 83 | 1006.7 |
| 20260831000257 | 24 | 115 | 9.7 | 11.3 | 0.00 | 1.12 | 1.12 | 83 | 1006.6 |
| 20260830235755 | 24 | 125 | 11.3 | 14.5 | 0.00 | 1.12 | 1.12 | 82 | 1006.4 |
| 20260830235250 | 25 | 122 | 12.9 | 14.5 | 0.00 | 1.12 | 1.12 | 82 | 1006.5 |
| 20260830234745 | 25 | 97 | 12.9 | 16.1 | 0.00 | 1.12 | 1.12 | 81 | 1006.2 |
| 20260830234241 | 25 | 153 | 11.3 | 12.9 | 0.00 | 1.12 | 1.12 | 81 | 1006.2 |
| 20260830233737 | 25 | 143 | 12.9 | 16.1 | 0.00 | 1.12 | 1.12 | 81 | 1006.3 |
| 20260830233232 | 25 | 91 | 6.4 | 8.0 | 0.00 | 1.12 | 1.12 | 80 | 1006.5 |
| 20260830232727 | 25 | 108 | 6.4 | 9.7 | 0.00 | 1.12 | 1.12 | 80 | 1006.6 |
| 20260830232223 | 25 | 131 | 11.3 | 12.9 | 0.00 | 1.12 | 1.12 | 79 | 1006.6 |
| 20260830231720 | 25 | 114 | 8.0 | 12.9 | 0.00 | 1.12 | 1.12 | 79 | 1006.7 |
| 20260830231219 | 25 | 98 | 11.3 | 12.9 | 0.00 | 1.12 | 1.12 | 79 | 1006.6 |
| 20260830230714 | 25 | 81 | 8.0 | 11.3 | 0.00 | 1.12 | 1.12 | 79 | 1006.4 |
| 20260830230209 | 25 | 85 | 14.5 | 16.1 | 0.00 | 1.12 | 1.12 | 78 | 1006.5 |
| 20260830225703 | 25 | 127 | 8.0 | 9.7 | 0.00 | 1.12 | 1.12 | 78 | 1006.4 |
| 20260830225158 | 25 | 93 | 9.7 | 11.3 | 0.00 | 1.12 | 1.12 | 77 | 1006.3 |
| 20260830224657 | 26 | 135 | 8.0 | 11.3 | 0.00 | 1.12 | 1.12 | 77 | 1006.2 |
| 20260830224153 | 26 | 100 | 14.5 | 17.7 | 0.00 | 1.12 | 1.12 | 76 | 1006.2 |
| 20260830223649 | 26 | 78 | 11.3 | 16.1 | 0.00 | 1.12 | 1.12 | 77 | 1006.2 |
| 20260830223144 | 26 | 106 | 11.3 | 14.5 | 0.00 | 1.12 | 1.12 | 77 | 1006.5 |
| 20260830222639 | 26 | 80 | 9.7 | 14.5 | 0.00 | 1.12 | 1.12 | 76 | 1006.5 |
| 20260830222134 | 26 | 109 | 11.3 | 12.9 | 0.00 | 1.12 | 1.12 | 77 | 1006.5 |
| 20260830221629 | 26 | 140 | 9.7 | 11.3 | 0.00 | 1.12 | 1.12 | 76 | 1006.7 |
| 20260830221120 | 26 | 94 | 14.5 | 16.1 | 0.00 | 1.12 | 1.12 | 76 | 1006.6 |
| 20260830220615 | 26 | 102 | 17.7 | 22.5 | 0.00 | 1.12 | 1.12 | 77 | 1006.4 |
| 20260830220108 | 26 | 109 | 16.1 | 20.9 | 0.00 | 1.12 | 1.12 | 76 | 1006.6 |
| 20260830215607 | 26 | 106 | 11.3 | 16.1 | 0.00 | 1.12 | 1.12 | 75 | 1006.4 |
| 20260830215101 | 26 | 99 | 11.3 | 14.5 | 0.00 | 1.12 | 1.12 | 76 | 1006.4 |